This demonstration page uses our WeatherBlox Daily Observations layout. Learn more.

Left ArrowRight Arrow

Hourly Observations for May 10, 2015

Temp ( °F °C ) Dew Point ( °F °C ) Humidity (%) Winds ( mph kmh ) Pressure ( in mb ) Visibility ( mi km ) Precip ( " mm )
12:53 am 00:53 Clear 65 18.3 50 10 59 59 Calm 29.97 1015 10 16 0.00 0.00
1:53 am 01:53 Clear 62 16.7 50 10 65 65 N 3 6 29.98 1015 10 16 0.00 0.00
2:53 am 02:53 Clear 61 16.1 48 8.9 63 63 NNE 3 6 29.98 1015 10 16 0.00 0.00
3:53 am 03:53 Clear 61 16.1 48 8.9 63 63 N 6 9 29.98 1015 10 16 0.00 0.00
4:53 am 04:53 Clear 59 15 49 9.4 69 69 Calm 29.97 1015 10 16 0.00 0.00
5:53 am 05:53 Clear 57 13.9 49 9.4 74 74 Calm 29.98 1015 10 16 0.00 0.00
6:53 am 06:53 Sunny 58 14.4 50 10 75 75 Calm 29.99 1016 10 16 0.00 0.00
7:53 am 07:53 Sunny 62 16.7 50 10 65 65 Calm 30.00 1016 10 16 0.00 0.00
8:53 am 08:53 Sunny 66 18.9 51 10.6 59 59 SSE 7 11 30.00 1016 10 16 0.00 0.00
9:53 am 09:53 Sunny 70 21 52 11 53 53 undefined N/A N/A 2 3 0.00 0.00
10:53 am 10:53 Sunny 73 22.8 52 11.1 48 48 VRB 5 7 29.97 1015 10 16 0.00 0.00
11:53 am 11:53 Sunny 76 24.4 51 10.6 42 42 undefined N/A 29.96 1014 10 16 0.00 0.00
12:53 pm 12:53 Sunny 79 26.1 52 11.1 39 39 S 7 11 29.94 1014 10 16 0.00 0.00
1:53 pm 13:53 Sunny 81 27.2 51 10.6 35 35 S 10 17 29.92 1013 10 16 0.00 0.00
2:53 pm 14:53 Sunny 80 26.7 50 10 35 35 SSW 9 15 29.91 1013 10 16 0.00 0.00
3:53 pm 15:53 Sunny 81 27.2 50 10 34 34 VRB 7 11 29.89 1012 10 16 0.00 0.00
4:53 pm 16:53 Mostly Sunny 81 27.2 49 9.4 33 33 S 9 15 29.88 1012 10 16 0.00 0.00
5:53 pm 17:53 Sunny 80 26.7 50 10 35 35 SSE 9 15 29.87 1012 10 16 0.00 0.00
6:53 pm 18:53 Sunny 79 26.1 51 10.6 38 38 SE 8 13 29.86 1011 10 16 0.00 0.00
7:53 pm 19:53 Partly Cloudy 76 24.4 53 11.7 45 45 SSE 7 11 29.85 1011 10 16 0.00 0.00
8:53 pm 20:53 Cloudy 74 23.3 54 12.2 50 50 Calm 29.85 1011 10 16 0.00 0.00
9:53 pm 21:53 Mostly Cloudy 73 22.8 54 12.2 51 51 Calm 29.85 1011 10 16 0.00 0.00
10:53 pm 22:53 Cloudy 72 22.2 53 11.7 52 52 Calm 29.86 1011 10 16 0.00 0.00
11:53 pm 23:53 Clear 71 21.7 43 6.1 36 36 SSW 5 7 29.85 1011 10 16 0.00 0.00

Powered by AerisWeather